Concord, NH

8:36 AM EDT on March 28, 2017 (GMT -0400)
Concord Municipal

Weather History for KCON - December, 2011

Change the Weather History Date:

Sunday, December 11, 2011

  Actual Average Record
Temperature  
Mean Temperature 25 °F 28 °F  
Max Temperature 36 °F 38 °F 64 °F (1911)
Min Temperature 14 °F 19 °F -15 °F (1977)
Degree Days  
Heating Degree Days 40 37  
Month to date heating degree days 314 380  
Since 1 July heating degree days 1564 1940  
Cooling Degree Days 0 0  
Month to date cooling degree days 0 0  
Year to date cooling degree days 561 452  
Moisture  
Dew Point 15 °F    
Average Humidity 63    
Maximum Humidity 88    
Minimum Humidity 38    
Precipitation  
Precipitation 0.00 in 0.11 in 1.74 in (1952)
Month to date precipitation 2.43 1.22  
Year to date precipitation 53.14 38.63  
Snow  
Snow 0.00 in 0.50 in 7.00 in (2004)
Month to date snowfall T 4.4  
Since 1 July snowfall 25.7 7.0  
Snow Depth 0.00 in    
Sea Level Pressure  
Sea Level Pressure 30.55 in    
Wind  
Wind Speed 2 mph (SSW)    
Max Wind Speed 8 mph    
Max Gust Speed 10 mph    
Visibility 10 miles    
Events      
T = Trace of Precipitation, MM = Missing Value Source: NWS Daily Summary

Daily Weather History Graph

Daily Weather History Graph

Search for Another Location

Airport or City:

Trip Planner

Search our weather history database for the weather conditions in past years. The results will help you decide how hot, cold, wet, or windy it might be!

Date:

Astronomy

Dec. 11, 2011 Rise Set
Actual Time 7:07 AM EST 4:10 PM EST
Civil Twilight 6:35 AM EST 4:42 PM EST
Nautical Twilight 5:59 AM EST 5:18 PM EST
Astronomical Twilight 5:24 AM EST 5:53 PM EST
Moon 5:17 PM EST (12/11) 7:53 AM EST (12/11)
Length of Visible Light 10h 07m
Length of Day
9h 02m
Full, 99% of the Moon is Illuminated
Dec 11
Full
Dec 17
Last Quarter
Dec 24
New
Jan 1
First Quarter
Jan 9
Full

Hourly Weather History & Observations

Time (EST) Temp. Windchill Dew Point Humidity Pressure Visibility Wind Dir Wind Speed Gust Speed Precip Events Conditions
12:51 AM 19.9 °F - 12.9 °F 74% 30.44 in 10.0 mi Calm Calm - N/A   Clear
1:51 AM 19.0 °F - 14.0 °F 81% 30.47 in 10.0 mi Calm Calm - N/A   Clear
2:51 AM 16.0 °F - 12.0 °F 84% 30.49 in 10.0 mi Calm Calm - N/A   Clear
3:51 AM 17.1 °F - 14.0 °F 88% 30.49 in 10.0 mi Calm Calm - N/A   Clear
4:51 AM 16.0 °F - 12.9 °F 88% 30.51 in 10.0 mi Calm Calm - N/A   Clear
5:51 AM 16.0 °F - 12.9 °F 88% 30.54 in 10.0 mi Calm Calm - N/A   Clear
6:51 AM 15.1 °F - 12.0 °F 88% 30.56 in 10.0 mi Calm Calm - N/A   Clear
7:51 AM 17.1 °F - 14.0 °F 88% 30.58 in 10.0 mi Calm Calm - N/A   Clear
8:51 AM 25.0 °F - 19.9 °F 81% 30.60 in 10.0 mi Calm Calm - N/A   Clear
9:51 AM 28.0 °F - 19.9 °F 72% 30.61 in 10.0 mi Calm Calm - N/A   Clear
10:51 AM 30.9 °F 27.5 °F 18.0 °F 59% 30.60 in 10.0 mi NW 3.5 mph - N/A   Clear
11:51 AM 34.0 °F 29.8 °F 16.0 °F 48% 30.58 in 10.0 mi North 4.6 mph - N/A   Clear
12:51 PM 35.1 °F 31.0 °F 12.9 °F 40% 30.58 in 10.0 mi WSW 4.6 mph - N/A   Clear
1:51 PM 35.1 °F - 12.9 °F 40% 30.56 in 10.0 mi Calm Calm - N/A   Clear
2:51 PM 35.1 °F 30.1 °F 12.0 °F 39% 30.56 in 10.0 mi SW 5.8 mph - N/A   Clear
3:51 PM 34.0 °F 29.8 °F 12.9 °F 42% 30.57 in 10.0 mi SW 4.6 mph - N/A   Clear
4:51 PM 30.0 °F - 15.1 °F 54% 30.58 in 10.0 mi Calm Calm - N/A   Clear
5:51 PM 27.0 °F - 16.0 °F 63% 30.58 in 10.0 mi Calm Calm - N/A   Clear
6:51 PM 27.0 °F 20.5 °F 16.0 °F 63% 30.58 in 10.0 mi SSE 5.8 mph - N/A   Clear
7:51 PM 25.0 °F 19.3 °F 16.0 °F 69% 30.57 in 10.0 mi South 4.6 mph - N/A   Clear
8:51 PM 26.1 °F 20.5 °F 16.0 °F 66% 30.56 in 10.0 mi South 4.6 mph - N/A   Clear
9:51 PM 26.6 °F 18.2 °F 15.8 °F 64% 30.54 in 10.0 mi South 8.1 mph - N/A   Clear
10:51 PM 26.1 °F 18.4 °F 17.1 °F 69% 30.56 in 10.0 mi SSE 6.9 mph - N/A   Clear
11:51 PM 24.1 °F 17.0 °F 16.0 °F 71% 30.56 in 10.0 mi South 5.8 mph - N/A   Clear